Hutchinson, KS

5:10 PM CST on January 18, 2017 (GMT -0600)
Hutchinson Municipal

Weather History for KHUT - December, 2013

Change the Weather History Date:

Sunday, December 8, 2013

  Actual Average Record
Temperature  
Mean Temperature 18 °F -  
Max Temperature 21 °F 44 °F 68 °F (2008)
Min Temperature 12 °F 22 °F -7 °F (2005)
Degree Days  
Heating Degree Days 48    
Moisture  
Dew Point 14 °F    
Average Humidity 80    
Maximum Humidity 93    
Minimum Humidity 52    
Precipitation  
Precipitation 0.00 in - - ()
Sea Level Pressure  
Sea Level Pressure 30.10 in    
Wind  
Wind Speed 10 mph (SSW)    
Max Wind Speed 14 mph    
Max Gust Speed -    
Visibility 7 miles    
Events Snow    
Averages and records for this station are not official NWS values.
T = Trace of Precipitation, MM = Missing Value Source: NWS Daily Summary

Daily Weather History Graph

Daily Weather History Graph

Search for Another Location

Airport or City:

Trip Planner

Search our weather history database for the weather conditions in past years. The results will help you decide how hot, cold, wet, or windy it might be!

Date:

Astronomy

Dec. 08, 2013 Rise Set
Actual Time 7:35 AM CST 5:11 PM CST
Civil Twilight 7:06 AM CST 5:40 PM CST
Nautical Twilight 6:33 AM CST 6:13 PM CST
Astronomical Twilight 6:01 AM CST 6:45 PM CST
Moon 12:01 PM CST (12/8) 11:57 PM CST (12/8)
Length of Visible Light 10h 34m
Length of Day
9h 36m
Waxing Crescent, 40% of the Moon is Illuminated
Dec 8
Waxing Crescent
Dec 9
First Quarter
Dec 17
Full
Dec 25
Last Quarter
Jan 1
New

Hourly Weather History & Observations

Time (CST) Temp. Windchill Dew Point Humidity Pressure Visibility Wind Dir Wind Speed Gust Speed Precip Events Conditions
12:52 AM 19.9 °F 8.6 °F 5.0 °F 52% 30.24 in 10.0 mi SE 10.4 mph - N/A   Overcast
1:41 AM 19.4 °F 7.2 °F 5.0 °F 54% 30.16 in 10.0 mi SSE 11.5 mph - N/A   Overcast
1:52 AM 19.9 °F 10.1 °F 6.1 °F 55% 30.21 in 10.0 mi SE 8.1 mph - N/A   Overcast
2:52 AM 19.9 °F 8.6 °F 6.1 °F 55% 30.17 in 10.0 mi SSE 10.4 mph - N/A   Overcast
3:52 AM 19.9 °F 7.3 °F 9.0 °F 62% 30.14 in 10.0 mi SSE 12.7 mph - N/A   Overcast
4:52 AM 19.0 °F 6.1 °F 12.0 °F 74% 30.11 in 8.0 mi SSE 12.7 mph - N/A   Overcast
5:27 AM 17.6 °F 4.3 °F 15.8 °F 93% 30.05 in 4.0 mi SSE 12.7 mph - N/A   Overcast
5:33 AM 17.6 °F 4.3 °F 15.8 °F 93% 30.04 in 4.0 mi SE 12.7 mph - N/A   Overcast
5:52 AM 18.0 °F 4.2 °F 15.1 °F 88% 30.08 in 5.0 mi SSE 13.8 mph - N/A   Overcast
6:52 AM 18.0 °F 4.8 °F 15.1 °F 88% 30.08 in 8.0 mi South 12.7 mph - N/A   Overcast
7:52 AM 19.0 °F 7.5 °F 15.1 °F 85% 30.07 in 7.0 mi South 10.4 mph - N/A   Overcast
8:52 AM 19.0 °F 7.5 °F 15.1 °F 85% 30.07 in 4.0 mi South 10.4 mph - N/A   Overcast
9:25 AM 19.4 °F 7.9 °F 15.8 °F 86% 30.01 in 2.5 mi South 10.4 mph - N/A   Overcast
9:52 AM 19.9 °F 7.3 °F 16.0 °F 85% 30.06 in 2.5 mi South 12.7 mph - N/A   Overcast
10:40 AM 19.4 °F 7.9 °F 17.6 °F 93% 30.00 in 3.0 mi South 10.4 mph - N/A   Overcast
10:52 AM 19.9 °F 7.9 °F 17.1 °F 89% 30.04 in 4.0 mi South 11.5 mph - N/A   Overcast
11:52 AM 21.0 °F 12.4 °F 17.1 °F 85% 30.02 in 5.0 mi South 6.9 mph - N/A   Overcast
12:52 PM 21.0 °F 13.4 °F 17.1 °F 85% 29.98 in 4.0 mi South 5.8 mph - N/A   Overcast
1:52 PM 21.9 °F 13.4 °F 17.1 °F 82% 29.98 in 5.0 mi WSW 6.9 mph - N/A   Haze
2:52 PM 21.9 °F 14.5 °F 18.0 °F 85% 30.00 in 4.0 mi West 5.8 mph - N/A   Overcast
3:52 PM 21.9 °F 12.5 °F 18.0 °F 85% 30.03 in 5.0 mi WNW 8.1 mph - N/A   Overcast
4:52 PM 21.9 °F 13.4 °F 18.0 °F 85% 30.06 in 4.0 mi NNW 6.9 mph - N/A   Overcast
5:52 PM 21.9 °F 11.7 °F 18.0 °F 85% 30.08 in 7.0 mi NNW 9.2 mph - N/A   Overcast
6:15 PM 21.2 °F 10.9 °F 17.6 °F 86% 30.05 in 7.0 mi NNW 9.2 mph - N/A   Overcast
6:37 PM 21.2 °F 11.7 °F 17.6 °F 86% 30.06 in 8.0 mi NNW 8.1 mph - N/A   Overcast
6:52 PM 21.9 °F 9.8 °F 17.1 °F 82% 30.11 in 8.0 mi NNW 12.7 mph - N/A   Overcast
7:52 PM 21.9 °F 11.0 °F 16.0 °F 78% 30.14 in 9.0 mi NNW 10.4 mph - N/A   Overcast
8:23 PM 21.2 °F 10.9 °F 15.8 °F 80% 30.11 in 7.0 mi NNW 9.2 mph - 0.00 in Snow Light Snow
8:52 PM 21.0 °F 10.6 °F 15.1 °F 78% 30.18 in 9.0 mi North 9.2 mph - 0.00 in   Overcast
9:52 PM 17.1 °F 8.7 °F 10.9 °F 77% 30.22 in 10.0 mi NNW 5.8 mph - N/A   Scattered Clouds
10:52 PM 14.0 °F 2.0 °F 9.0 °F 80% 30.25 in 10.0 mi NNW 9.2 mph - N/A   Clear
11:52 PM 12.9 °F 1.6 °F 8.1 °F 81% 30.24 in 10.0 mi North 8.1 mph - N/A   Clear